Change the Weather History Date:

Wednesday, May 8, 2013

  Actual Average Record
Temperature  
Mean Temperature 58 °F -  
Max Temperature 66 °F 67 °F 88 °F (1985)
Min Temperature 51 °F 42 °F 26 °F (1955)
Degree Days  
Heating Degree Days 6    
Growing Degree Days 8 (Base 50)    
Moisture  
Dew Point 51 °F    
Average Humidity 72    
Maximum Humidity 88    
Minimum Humidity 52    
Precipitation  
Precipitation 0.00 in - - ()
Sea Level Pressure  
Sea Level Pressure 30.01 in    
Wind  
Wind Speed 6 mph (SSE)    
Max Wind Speed 16 mph    
Max Gust Speed 20 mph    
Visibility 10 miles    
Events Rain    
Averages and records for this station are not official NWS values.
T = Trace of Precipitation, MM = Missing Value Source: NWS Daily Summary

Daily Weather History Graph

Daily Weather History Graph

Search for Another Location

Airport or City:

Trip Planner

Search our weather history database for the weather conditions in past years. The results will help you decide how hot, cold, wet, or windy it might be!

Date:

Astronomy

May. 08, 2013 Rise Set
Actual Time 6:03 AM CDT 8:42 PM CDT
Civil Twilight 5:29 AM CDT 9:16 PM CDT
Nautical Twilight 4:46 AM CDT 9:59 PM CDT
Astronomical Twilight 3:57 AM CDT 10:49 PM CDT
Moon 5:16 AM CDT (5/8) 7:39 PM CDT (5/8)
Length of Visible Light 15h 47m
Length of Day
14h 39m
Waning Crescent, 2% of the Moon is Illuminated
May 8
Waning Crescent
May 9
New
May 17
First Quarter
May 24
Full
May 31
Last Quarter

Hourly Weather History & Observations

Time (CDT) Temp. Dew Point Humidity Pressure Visibility Wind Dir Wind Speed Gust Speed Precip Events Conditions
12:14 AM 64.4 °F 46.4 °F 52% 29.95 in 10.0 mi SW 9.2 mph - N/A   Overcast
12:34 AM 62.6 °F 46.4 °F 55% 29.95 in 10.0 mi SW 8.1 mph - N/A   Overcast
12:54 AM 60.8 °F 46.4 °F 59% 29.95 in 10.0 mi WSW 5.8 mph - N/A   Light Drizzle
1:14 AM 62.6 °F 46.4 °F 55% 29.95 in 10.0 mi WSW 3.5 mph - N/A   Scattered Clouds
1:35 AM 57.2 °F 46.4 °F 67% 29.95 in 10.0 mi Calm Calm - N/A   Scattered Clouds
1:55 AM 59.0 °F 46.4 °F 63% 29.95 in 10.0 mi Calm Calm - N/A   Scattered Clouds
2:15 AM 60.8 °F 46.4 °F 59% 29.96 in 10.0 mi SSE 9.2 mph 16.1 mph N/A   Mostly Cloudy
2:35 AM 60.8 °F 48.2 °F 63% 29.96 in 10.0 mi South 10.4 mph - N/A   Mostly Cloudy
2:55 AM 59.0 °F 48.2 °F 67% 29.95 in 10.0 mi South 6.9 mph - N/A   Scattered Clouds
3:15 AM 57.2 °F 48.2 °F 72% 29.95 in 10.0 mi South 3.5 mph - N/A   Scattered Clouds
3:35 AM 57.2 °F 48.2 °F 72% 29.95 in 10.0 mi South 3.5 mph - N/A   Scattered Clouds
3:55 AM 55.4 °F 48.2 °F 77% 29.95 in 10.0 mi South 3.5 mph - N/A   Scattered Clouds
4:14 AM 55.4 °F 48.2 °F 77% 29.95 in 10.0 mi SSW 3.5 mph - N/A   Scattered Clouds
4:34 AM 53.6 °F 46.4 °F 77% 29.96 in 10.0 mi SSE 6.9 mph - N/A   Clear
4:55 AM 51.8 °F 46.4 °F 82% 29.96 in 10.0 mi SSE 4.6 mph - N/A   Clear
5:15 AM 51.8 °F 48.2 °F 88% 29.96 in 10.0 mi SSE 4.6 mph - N/A   Mostly Cloudy
5:55 AM 55.4 °F 48.2 °F 77% 29.97 in 10.0 mi South 6.9 mph - N/A   Overcast
6:14 AM 55.4 °F 48.2 °F 77% 29.97 in 10.0 mi South 4.6 mph - N/A   Overcast
6:35 AM 53.6 °F 48.2 °F 82% 29.98 in 10.0 mi SSE 4.6 mph - N/A   Mostly Cloudy
6:55 AM 55.4 °F 48.2 °F 77% 29.98 in 10.0 mi South 5.8 mph - N/A   Scattered Clouds
7:14 AM 55.4 °F 48.2 °F 77% 29.98 in 10.0 mi South 6.9 mph - N/A   Clear
7:34 AM 55.4 °F 48.2 °F 77% 29.99 in 10.0 mi South 6.9 mph - N/A   Clear
7:54 AM 57.2 °F 48.2 °F 72% 29.99 in 10.0 mi SSE 4.6 mph - N/A   Clear
8:15 AM 57.2 °F 50.0 °F 77% 30.00 in 10.0 mi SE 4.6 mph - N/A   Clear
8:35 AM 59.0 °F 50.0 °F 72% 30.00 in 10.0 mi Calm Calm - N/A   Scattered Clouds
8:55 AM 59.0 °F 50.0 °F 72% 30.00 in 10.0 mi SSE 3.5 mph - N/A   Scattered Clouds
9:15 AM 59.0 °F 48.2 °F 67% 30.01 in 10.0 mi SSW 5.8 mph - N/A   Mostly Cloudy
9:34 AM 59.0 °F 48.2 °F 67% 30.01 in 10.0 mi SSW 6.9 mph - N/A   Overcast
9:54 AM 60.8 °F 50.0 °F 68% 30.02 in 10.0 mi SW 5.8 mph - N/A   Mostly Cloudy
10:14 AM 60.8 °F 51.8 °F 72% 30.02 in 10.0 mi SSW 4.6 mph - N/A   Mostly Cloudy
10:34 AM 60.8 °F 51.8 °F 72% 30.02 in 10.0 mi Calm Calm - N/A   Mostly Cloudy
10:54 AM 62.6 °F 51.8 °F 68% 30.02 in 10.0 mi SSE 3.5 mph - N/A   Mostly Cloudy
11:15 AM 62.6 °F 51.8 °F 68% 30.03 in 10.0 mi SSE 3.5 mph - N/A   Mostly Cloudy
11:34 AM 62.6 °F 51.8 °F 68% 30.03 in 10.0 mi Calm Calm - N/A   Scattered Clouds
11:54 AM 64.4 °F 51.8 °F 64% 30.03 in 10.0 mi Calm Calm - N/A   Clear
12:14 PM 64.4 °F 51.8 °F 64% 30.03 in 10.0 mi Calm Calm - N/A   Scattered Clouds
12:35 PM 62.6 °F 51.8 °F 68% 30.03 in 10.0 mi Calm Calm - N/A Rain Light Rain
12:55 PM 62.6 °F 51.8 °F 68% 30.03 in 10.0 mi South 3.5 mph - N/A Rain Light Rain
1:14 PM 62.6 °F 53.6 °F 72% 30.03 in 10.0 mi Calm Calm - N/A   Overcast
1:34 PM 62.6 °F 53.6 °F 72% 30.03 in 10.0 mi Calm Calm - N/A Rain Light Rain
1:54 PM 60.8 °F 55.4 °F 82% 30.03 in 10.0 mi North 3.5 mph - N/A   Mostly Cloudy
2:14 PM 62.6 °F 53.6 °F 72% 30.03 in 10.0 mi NNE 4.6 mph - N/A   Overcast
2:34 PM 60.8 °F 55.4 °F 82% 30.03 in 10.0 mi NE 8.1 mph - N/A   Mostly Cloudy
2:54 PM 62.6 °F 55.4 °F 77% 30.03 in 10.0 mi NNE 10.4 mph - N/A   Mostly Cloudy
3:15 PM 66.2 °F 55.4 °F 68% 30.02 in 10.0 mi NNE 11.5 mph - N/A   Scattered Clouds
3:34 PM 64.4 °F 53.6 °F 68% 30.02 in 10.0 mi NE 9.2 mph - N/A   Scattered Clouds
3:55 PM 64.4 °F 55.4 °F 73% 30.02 in 10.0 mi East 13.8 mph - N/A   Scattered Clouds
4:15 PM 66.2 °F 53.6 °F 64% 30.02 in 10.0 mi East 15.0 mph 19.6 mph N/A   Scattered Clouds
4:34 PM 62.6 °F 53.6 °F 72% 30.02 in 10.0 mi ESE 16.1 mph - N/A Rain Rain
4:54 PM 64.4 °F 53.6 °F 68% 30.01 in 10.0 mi ESE 15.0 mph - N/A   Mostly Cloudy
5:14 PM 64.4 °F 53.6 °F 68% 30.01 in 10.0 mi ESE 16.1 mph - N/A   Scattered Clouds
5:35 PM 62.6 °F 53.6 °F 72% 30.01 in 10.0 mi ESE 13.8 mph - N/A   Scattered Clouds
5:54 PM 62.6 °F 53.6 °F 72% 30.02 in 10.0 mi ESE 13.8 mph - N/A   Clear
6:15 PM 62.6 °F 53.6 °F 72% 30.02 in 10.0 mi ESE 11.5 mph - N/A   Clear
6:34 PM 62.6 °F 53.6 °F 72% 30.02 in 10.0 mi East 11.5 mph - N/A   Scattered Clouds
6:55 PM 62.6 °F 53.6 °F 72% 30.02 in 10.0 mi ESE 8.1 mph - N/A   Scattered Clouds
7:14 PM 62.6 °F 53.6 °F 72% 30.03 in 10.0 mi ESE 5.8 mph - N/A   Mostly Cloudy
7:35 PM 62.6 °F 51.8 °F 68% 30.03 in 10.0 mi Calm Calm - N/A   Overcast
7:55 PM 62.6 °F 51.8 °F 68% 30.03 in 10.0 mi Calm Calm - N/A   Mostly Cloudy
8:14 PM 62.6 °F 51.8 °F 68% 30.03 in 10.0 mi Calm Calm - N/A   Scattered Clouds
8:34 PM 60.8 °F 51.8 °F 72% 30.03 in 10.0 mi Calm Calm - N/A   Scattered Clouds
8:54 PM 60.8 °F 51.8 °F 72% 30.03 in 10.0 mi Calm Calm - N/A   Scattered Clouds
9:15 PM 59.0 °F 51.8 °F 77% 30.04 in 10.0 mi Calm Calm - N/A   Overcast
9:34 PM 59.0 °F 51.8 °F 77% 30.05 in 10.0 mi Calm Calm - N/A   Overcast
9:55 PM 59.0 °F 51.8 °F 77% 30.06 in 10.0 mi NNE 3.5 mph - N/A   Overcast
10:15 PM 59.0 °F 51.8 °F 77% 30.06 in 10.0 mi NNE 3.5 mph - N/A   Overcast
10:35 PM 59.0 °F 51.8 °F 77% 30.06 in 10.0 mi Calm Calm - N/A   Mostly Cloudy
10:54 PM 59.0 °F 51.8 °F 77% 30.06 in 10.0 mi East 4.6 mph - N/A   Mostly Cloudy
11:14 PM 55.4 °F 51.8 °F 88% 30.06 in 10.0 mi ESE 5.8 mph - N/A   Scattered Clouds
11:34 PM 55.4 °F 51.8 °F 88% 30.05 in 10.0 mi SE 4.6 mph - N/A   Scattered Clouds
11:54 PM 55.4 °F 51.8 °F 88% 30.05 in 10.0 mi Calm Calm - N/A   Mostly Cloudy